Preview of NWS' New Version of Forecast
This preview is not operational and should not be used for support decisions.

Regional Weather Roundup (RWR)

Issued by National Weather Service (NWS)

                            
000
ASUS45 KCYS 191010
RWRWY 

WYOMING REGIONAL WEATHER ROUNDUP
NATIONAL WEATHER SERVICE CHEYENNE WY
400 AM MDT MON AUG 19 2019

NOTE:  "FAIR" INDICATES FEW OR NO CLOUDS BELOW 12,000 FEET
WITH NO SIGNIFICANT WEATHER AND/OR OBSTRUCTIONS TO VISIBILITY.

WYZ001-191100-
...YELLOWSTONE NATIONAL PARK...
  
CITY           SKY/WX    TMP DP  RH WIND       PRES   REMARKS
LK YELLOWSTONE   N/A     38  34  85 CALM      30.23R                  
W YELLOWSTONE  NOT AVBL                                               

$$
WYZ002>013-054>058-071-098>099-191100-
...NORTHERN WYOMING...
  
CITY           SKY/WX    TMP DP  RH WIND       PRES   REMARKS
JACKSON        CLEAR     43  33  68 N9        30.15                   
CODY           CLEAR     65  36  34 SW10      29.96S                  
GREYBULL       CLEAR     57  40  52 CALM      29.89R                  
WORLAND        CLEAR     57  37  47 S7        29.91R                  
SHERIDAN       CLEAR     52  45  77 NE3       29.89S                  
BUFFALO        CLEAR     57  43  59 W7        29.97R                  
GILLETTE       PTCLDY    61  52  72 S12       29.94S                  
HULETT         FAIR      61  48  63 CALM      29.97S                  
NEWCASTLE      FAIR      54  48  82 CALM      29.99R                  

$$
WYZ014>020-022>026-101>103-191100-
...CENTRAL WYOMING...
  
CITY           SKY/WX    TMP DP  RH WIND       PRES   REMARKS
BIG PINEY      CLEAR     43  29  57 CALM      30.20S                  
PINEDALE       CLEAR     37  34  87 NW7       30.21S WCI  32          
DUBOIS         FAIR      54  30  40 NW13      30.15S                  
LANDER         PTCLDY    61  32  33 SE5       30.05R                  
RIVERTON       PTCLDY    60  32  34 CALM      30.04R                  
CASPER         CLEAR     50  35  56 NW6       30.02F                  
DOUGLAS        CLEAR     51  44  77 CALM      30.01S                  

$$
WYZ021-027>030-104>119-191100-
...SOUTHERN WYOMING...
  
CITY           SKY/WX    TMP DP  RH WIND       PRES   REMARKS
EVANSTON       CLEAR     60  27  28 S7        30.21R                  
KEMMERER       CLEAR     46  32  57 N8        30.22R                  
FORT BRIDGER   NOT AVBL                                               
ROCK SPRINGS   CLEAR     59  26  28 SE5       30.17S                  
DIXON          FAIR      52  30  44 E9G24     30.21R                  
RAWLINS        CLEAR     50  24  36 E3        30.18R                  
SARATOGA       FAIR      52  30  43 SE7       30.22R                  
LARAMIE        CLEAR     49  27  42 S9        30.22R                  
CHEYENNE       CLEAR     58  31  35 W8        30.12S                  
TORRINGTON     FOG       55  55 100 E3        29.97R VSB 3/4          
PINE BLUFFS    FAIR      57  52  82 W7        30.05S                  

$$
  

000
ASUS45 KCYS 191010
RWRWY 

WYOMING REGIONAL WEATHER ROUNDUP
NATIONAL WEATHER SERVICE CHEYENNE WY
400 AM MDT MON AUG 19 2019

NOTE:  "FAIR" INDICATES FEW OR NO CLOUDS BELOW 12,000 FEET
WITH NO SIGNIFICANT WEATHER AND/OR OBSTRUCTIONS TO VISIBILITY.

WYZ001-191100-
YELLOWSTONE NATIONAL PARK
  
CITY           SKY/WX    TMP DP  RH WIND       PRES   REMARKS
LK YELLOWSTONE   N/A     38  34  85 CALM      30.23R                  
W YELLOWSTONE  NOT AVBL                                               

$$
WYZ002>013-054>058-071-098>099-191100-
NORTHERN WYOMING
  
CITY           SKY/WX    TMP DP  RH WIND       PRES   REMARKS
JACKSON        FAIR      43  33  68 N9        30.15                   
CODY           FAIR      65  36  34 SW10      29.96S                  
GREYBULL       FAIR      57  40  52 CALM      29.89R                  
WORLAND        FAIR      57  37  47 S7        29.91R                  
SHERIDAN       FAIR      52  45  77 NE3       29.89S                  
BUFFALO        FAIR      57  43  59 W7        29.97R                  
GILLETTE       FAIR      61  52  72 S12       29.94S                  
HULETT         FAIR      61  48  63 CALM      29.97S                  
NEWCASTLE      FAIR      54  48  82 CALM      29.99                   

$$
WYZ014>020-022>026-101>103-191100-
CENTRAL WYOMING
  
CITY           SKY/WX    TMP DP  RH WIND       PRES   REMARKS
BIG PINEY      FAIR      43  29  57 CALM      30.20S                  
PINEDALE       FAIR      37  34  87 NW7       30.21  WCI  32          
DUBOIS         FAIR      54  30  40 NW13      30.15                   
LANDER         FAIR      61  32  33 SE5       30.05R                  
RIVERTON       FAIR      60  32  34 CALM      30.04R                  
CASPER         FAIR      50  35  56 NW6       30.02F                  
DOUGLAS        FAIR      51  44  77 CALM      30.01S                  

$$
WYZ021-027>030-104>119-191100-
SOUTHERN WYOMING
  
CITY           SKY/WX    TMP DP  RH WIND       PRES   REMARKS
EVANSTON       FAIR      60  27  28 S7        30.21R                  
KEMMERER       FAIR      46  32  57 N8        30.22                   
ROCK SPRINGS   FAIR      59  26  28 SE5       30.17S                  
DIXON          FAIR      52  30  44 E9G24     30.21R                  
RAWLINS        FAIR      50  24  36 E3        30.18R                  
SARATOGA       FAIR      52  30  43 SE7       30.22R                  
LARAMIE        FAIR      49  27  42 S9        30.22R                  
CHEYENNE       FAIR      58  31  35 W8        30.12S                  
TORRINGTON     FOG       55  55 100 E3        29.97R VSB 3/4          
PINE BLUFFS    FAIR      57  52  82 W7        30.05S                  

$$